Theta_e
321 325 328 331 332 334 335 338 340 340 340 342 343 346 352 352 344 346 348 350 347 346 344 346 348 343 344 343 342 345 343 352 352 351 354 353 354 354 354 353 352 349 343 344
321 325 327 330 332 334 335 338 338 341 341 337 338 342 346 346 349 347 347 343 344 344 343 345 350 348 346 345 343 344 340 346 353 355 352 352 354 354 351 347 350 350 344 346
320 323 326 330 332 332 332 338 342 342 340 337 337 337 353 349 348 344 343 342 342 345 338 339 351 350 349 347 345 345 341 342 343 355 355 356 356 354 352 350 350 346 349 349
319 321 325 328 331 331 331 336 342 342 340 337 334 335 342 350 352 348 344 341 344 345 342 344 350 350 348 348 348 348 347 345 344 355 355 356 355 353 352 351 347 348 350 350
320 324 324 327 328 330 333 338 339 339 336 333 336 333 334 342 354 352 347 345 346 344 346 349 351 352 349 349 349 351 351 347 344 348 358 355 355 354 354 352 351 351 352 350
319 321 323 324 326 331 335 338 336 334 332 337 336 337 341 342 339 347 347 347 344 343 342 350 347 354 354 353 352 354 352 349 355 357 357 356 354 354 353 351 347 345 345 341
316 318 320 324 326 326 336 334 338 339 336 339 335 337 338 339 339 341 347 347 343 339 338 348 348 354 358 358 359 360 357 360 361 358 356 357 356 356 355 349 345 343 342 340
317 318 323 325 324 325 329 334 340 342 341 338 332 337 336 334 335 337 348 348 346 340 338 347 351 357 359 361 363 363 363 362 360 357 359 359 358 355 351 344 340 340 340 342
317 321 323 325 325 325 326 331 335 336 334 333 333 336 336 336 336 337 342 347 350 350 346 348 355 356 358 359 361 361 361 360 358 361 359 358 355 351 342 339 338 337 341 344
316 317 319 322 324 324 325 327 331 331 337 340 337 337 337 339 339 340 347 351 350 350 352 355 355 356 359 359 360 359 359 361 360 359 358 356 351 343 339 339 340 341 343 344
314 316 320 324 323 324 327 332 331 330 332 336 339 341 337 339 340 344 349 349 347 354 357 356 355 355 358 361 361 361 361 358 359 358 357 354 349 342 340 341 342 342 345 345
315 314 317 319 321 324 325 329 330 333 334 331 334 340 339 342 342 345 347 347 349 349 353 353 354 354 359 360 360 359 358 359 360 358 353 352 344 341 341 341 342 347 346 346
317 315 318 319 318 325 330 328 328 328 329 334 341 339 337 338 338 345 349 348 347 350 351 352 353 355 358 358 359 359 359 360 359 355 353 351 343 343 344 348 347 346 345 346
324 313 316 319 320 333 332 331 331 324 328 332 338 341 341 339 338 338 344 345 349 349 347 350 354 356 358 358 358 359 359 360 357 354 347 342 348 348 348 346 346 345 346 346
314 317 318 320 323 334 334 332 332 332 333 336 338 339 337 335 337 340 343 347 346 344 343 351 353 354 357 358 357 359 360 358 353 345 343 345 350 347 346 346 345 345 345 343
327 317 320 323 333 333 334 335 333 332 333 332 335 339 336 336 334 336 344 345 344 345 344 344 351 350 358 355 354 355 354 352 347 344 345 348 348 347 346 345 345 344 342 339
335 329 321 320 321 324 326 331 333 332 336 338 338 334 338 337 340 337 337 343 344 342 340 345 337 344 357 354 354 352 349 347 346 346 349 348 346 344 344 344 342 338 335 333
335 332 320 325 332 334 328 333 334 335 334 336 335 334 336 335 333 344 342 345 346 337 341 353 347 357 356 355 352 350 349 347 347 348 346 345 343 342 343 340 336 329 326 326
331 323 325 329 333 333 334 334 335 336 336 343 335 339 337 337 340 347 356 340 341 356 355 355 358 357 356 353 345 345 348 347 347 343 341 334 329 337 338 333 326 326 328 329
333 332 331 326 333 336 331 339 340 336 344 346 336 340 339 345 343 340 355 357 354 354 353 354 358 357 351 342 341 348 345 343 340 333 334 338 338 335 329 326 326 327 323 325
339 337 339 329 330 330 342 341 342 343 353 349 347 338 342 341 335 336 350 352 352 352 350 349 349 347 343 340 342 338 341 339 338 341 337 333 329 326 325 327 326 320 319 322
340 346 349 345 331 339 339 342 340 344 344 353 353 353 352 340 334 350 350 351 350 349 349 347 345 343 341 340 340 337 336 343 340 336 333 326 325 324 325 321 316 314 315 313
345 339 342 344 344 336 336 341 340 342 346 344 344 346 344 345 353 351 350 348 346 345 345 344 341 340 340 340 337 339 340 338 335 331 325 322 323 324 325 320 314 313 312 312
338 337 342 341 340 338 338 336 339 341 344 344 349 343 348 354 352 349 346 344 342 342 340 340 339 338 337 338 338 337 334 333 327 326 324 322 323 324 321 318 314 313 312 310
338 339 339 340 339 338 337 337 337 336 337 340 343 349 353 352 350 345 343 341 341 340 338 338 336 335 334 334 331 329 328 326 325 324 324 322 322 321 319 318 314 314 313 312
335 337 342 346 338 337 336 336 337 339 341 338 348 354 350 349 347 345 343 342 340 338 337 335 334 331 329 327 327 328 327 325 324 318 320 322 319 321 318 318 314 313 314 314
Wind_Speed
5 3 5 10 8 7 7 8 3 5 7 4 7 16 22 23 16 8 7 6 3 6 11 19 28 37 36 34 23 24 20 21 22 19 16 14 12 12 14 9 6 8 5 7
4 5 11 9 9 7 12 7 6 7 13 3 7 4 17 19 20 15 12 4 5 3 4 13 24 30 30 36 30 21 24 22 21 18 18 13 11 11 12 10 8 9 6 5
6 8 8 9 12 9 10 3 1 5 10 4 3 4 6 10 3 7 6 5 1 5 9 7 20 25 25 31 31 24 26 26 19 17 13 13 10 7 6 6 8 7 7 6
6 13 11 9 9 6 7 8 4 4 10 4 5 4 4 5 5 6 7 7 6 7 7 5 15 21 24 31 28 21 20 28 20 18 16 15 12 7 4 5 4 9 9 6
9 4 6 8 16 5 12 7 7 3 5 4 9 4 4 4 8 13 12 10 11 14 13 9 12 25 26 29 27 24 20 21 23 19 14 8 6 4 2 1 3 2 4 3
9 5 6 10 15 7 8 1 7 4 3 3 5 4 6 6 7 8 13 13 16 9 10 8 10 21 23 25 26 23 23 23 21 20 12 10 7 7 5 8 18 18 17 11
7 10 8 6 7 1 3 5 2 4 4 5 3 1 8 7 4 11 21 20 15 11 3 5 5 18 23 23 24 24 25 25 24 20 15 10 8 8 9 11 15 15 13 12
4 9 6 6 9 10 7 10 6 5 4 3 3 4 6 4 5 10 20 19 16 11 6 5 11 21 25 26 28 27 29 25 22 17 15 13 10 10 13 13 14 11 9 10
4 8 6 6 4 9 5 4 10 7 5 4 4 7 6 6 2 8 20 16 19 14 12 13 18 23 24 27 32 31 27 22 19 18 16 16 16 15 15 13 13 12 9 7
7 4 5 10 6 5 7 6 3 2 4 1 5 4 5 5 3 11 10 15 16 17 16 17 16 22 24 26 29 28 26 24 21 18 18 17 17 15 14 13 11 8 7 6
7 6 20 2 4 9 2 1 5 5 5 6 3 5 7 8 2 9 15 5 11 11 20 17 16 24 26 25 26 28 26 24 22 23 20 19 16 16 14 11 8 7 7 6
12 6 7 12 6 6 8 10 8 5 5 2 5 6 2 5 2 9 15 18 16 15 11 16 19 24 24 24 26 28 27 27 25 22 22 18 16 15 12 10 9 8 5 6
6 3 5 10 8 5 2 3 2 2 5 5 6 5 5 4 5 13 19 15 23 15 18 14 14 18 25 27 30 29 28 29 28 25 22 17 15 11 13 15 9 6 6 7
9 4 7 8 8 4 0 4 5 5 4 5 7 5 6 7 7 7 10 13 9 4 7 5 8 12 25 29 31 33 29 29 27 27 22 19 17 17 14 7 6 7 7 8
4 6 6 7 8 3 5 6 7 5 4 2 6 11 9 9 11 6 13 9 11 6 6 2 6 5 8 19 23 31 31 33 29 25 23 19 18 13 8 6 6 5 8 9
6 5 1 3 5 5 4 9 8 6 2 7 7 6 9 7 6 7 13 13 16 17 16 14 17 12 13 20 26 34 38 35 29 23 22 20 15 11 10 8 7 9 10 10
3 3 5 6 3 3 5 8 6 4 0 7 7 9 6 6 6 10 9 17 23 21 16 17 11 10 19 22 24 21 21 28 27 25 20 18 16 15 12 10 10 10 11 10
2 4 3 4 2 3 7 5 5 7 6 6 7 8 10 10 7 7 6 11 15 16 15 16 12 18 20 25 25 29 24 21 22 21 23 18 15 15 12 11 11 10 11 12
4 4 2 2 4 5 4 3 5 6 6 11 9 7 4 6 8 2 6 5 8 7 7 12 23 22 25 30 31 23 26 25 24 21 19 17 14 12 12 11 12 16 14 11
3 7 4 1 5 8 7 4 6 9 1 17 1 11 8 4 4 3 5 6 9 19 20 20 25 25 28 26 30 30 28 26 23 19 16 13 12 12 10 11 18 15 18 21
4 4 2 3 5 6 2 9 5 6 1 7 2 3 11 9 4 6 10 11 13 21 25 24 24 22 23 33 36 31 24 22 20 21 18 14 13 12 14 15 17 19 21 21
3 3 3 4 3 4 11 11 4 8 2 10 17 16 19 10 7 11 10 8 13 14 21 23 24 21 23 25 30 28 25 21 22 20 16 13 12 16 16 20 17 14 16 19
2 2 4 5 4 8 6 3 5 12 7 8 14 19 20 17 4 9 6 10 10 16 18 21 26 23 23 28 30 28 24 25 20 15 14 14 15 14 14 16 15 16 17 18
3 1 2 4 7 7 4 1 4 6 18 18 21 21 19 10 3 7 5 7 8 16 19 23 25 20 19 21 24 27 25 21 20 18 17 15 16 18 18 15 15 17 17 16
4 4 4 5 7 8 6 7 9 12 8 13 16 23 24 18 11 7 6 7 12 16 18 23 23 22 21 22 22 20 20 20 20 18 17 15 15 15 17 14 13 12 11 9
4 6 4 5 8 5 9 6 5 9 11 12 18 17 16 18 15 10 8 9 15 16 22 22 22 22 19 19 19 17 15 15 17 16 14 16 14 15 13 14 12 8 6 5
Wind_Direction
296 79 234 245 237 238 279 257 318 278 292 137 228 136 179 192 199 199 190 183 233 201 198 162 164 176 178 179 179 203 188 182 190 204 201 213 227 241 250 241 255 262 276 296
357 230 237 238 263 268 290 261 328 321 288 162 207 204 178 185 201 194 173 175 185 339 245 162 172 174 188 186 187 197 212 195 193 205 207 214 232 245 247 249 249 252 258 311
177 242 232 238 262 267 266 276 282 308 306 306 188 69 144 210 123 149 115 158 223 193 213 171 172 189 193 195 194 203 203 195 194 197 192 207 224 249 208 251 247 247 278 324
227 251 247 250 252 222 255 206 169 199 302 235 25 285 251 188 161 181 193 176 218 205 137 160 170 191 201 200 203 209 208 202 201 198 206 216 222 209 231 267 271 267 272 297
244 233 234 241 244 191 246 212 210 259 251 70 346 68 241 141 202 206 205 190 222 212 159 172 177 194 202 201 205 209 206 195 201 203 218 209 191 183 41 165 72 306 284 100
231 278 184 230 252 190 237 214 46 25 92 63 228 133 283 197 197 188 213 193 225 268 116 164 176 190 196 196 201 202 197 193 194 190 180 184 186 170 126 102 108 95 99 88
308 277 271 230 261 277 132 67 21 356 356 220 235 157 238 258 241 151 187 189 213 236 152 188 192 172 181 175 188 194 194 192 185 182 179 175 170 158 129 110 113 116 99 86
214 301 192 230 182 212 186 153 149 214 211 239 342 230 261 232 269 149 186 194 199 207 216 244 177 170 162 164 171 173 177 175 179 180 178 175 159 149 132 125 118 106 82 75
181 261 305 279 241 143 246 124 182 105 345 78 236 283 331 292 101 77 171 196 194 192 200 220 167 165 158 166 173 177 178 176 179 179 172 161 148 144 137 135 124 107 96 77
223 284 246 285 1 273 160 169 109 358 129 15 289 283 237 312 181 47 144 155 172 188 186 170 164 159 165 170 173 173 172 170 175 174 166 157 151 147 139 137 126 112 102 78
156 146 271 134 195 246 322 139 72 124 138 162 227 267 217 205 28 72 129 112 69 197 167 164 163 164 163 165 167 169 170 171 174 171 166 160 158 157 162 159 142 126 115 64
197 170 229 221 253 227 205 190 151 127 237 182 145 263 177 176 190 114 129 136 114 244 199 165 163 160 155 157 165 172 175 178 179 172 164 166 161 167 182 172 148 120 74 38
175 225 265 313 346 359 336 134 122 58 70 192 152 247 172 139 129 161 149 153 163 162 165 169 159 159 158 163 169 176 181 183 178 171 167 168 168 173 134 125 117 69 44 37
107 131 164 221 219 200 258 299 114 80 98 223 215 203 192 151 184 179 177 163 147 127 40 69 141 166 163 169 173 175 178 181 177 171 164 153 137 127 124 103 70 55 56 47
51 164 162 208 215 244 267 232 266 141 175 122 208 181 205 165 205 174 180 135 122 108 61 309 138 117 189 172 170 171 175 173 177 170 160 148 142 129 114 83 56 55 64 58
7 315 201 207 192 211 268 282 306 287 273 211 204 208 191 146 129 134 165 159 156 171 180 203 198 154 173 168 155 167 166 172 170 163 152 145 132 121 102 91 94 84 78 62
355 60 15 281 286 305 335 236 240 252 25 164 171 210 173 176 121 158 207 199 181 194 185 203 200 163 172 157 151 161 154 156 156 153 144 134 127 116 118 119 102 70 55 53
262 132 152 246 26 215 235 288 174 186 241 242 323 177 174 114 125 147 169 156 200 200 192 195 187 175 148 143 134 132 144 148 127 133 132 134 137 128 126 110 94 76 77 72
203 112 358 167 195 264 282 258 202 106 313 338 200 83 108 127 142 141 113 166 153 147 150 160 168 162 145 142 132 148 145 152 150 155 133 133 125 118 111 94 84 82 71 60
108 102 130 56 225 209 236 298 23 88 282 352 105 146 158 130 107 248 34 78 120 121 127 130 148 148 135 133 141 147 144 143 141 132 134 129 121 117 99 92 84 78 97 106
332 48 46 261 243 285 31 313 287 106 333 312 63 207 174 141 139 141 67 58 90 108 117 119 122 126 132 149 149 135 141 142 142 138 131 124 124 110 110 103 108 108 102 106
349 58 351 333 307 235 356 327 234 136 138 92 60 23 350 329 83 91 88 80 95 98 103 110 115 118 132 140 138 131 139 144 144 139 129 128 121 121 111 113 109 102 104 102
154 182 186 170 229 259 303 214 317 118 189 141 95 39 342 298 43 83 105 95 101 109 105 112 112 116 136 146 150 141 144 148 144 140 131 127 130 130 128 125 109 107 107 107
307 159 81 41 235 251 249 262 324 55 121 114 118 140 200 248 105 102 117 128 124 120 111 115 117 124 137 152 153 145 150 152 150 142 138 138 137 138 145 136 124 126 125 122
205 215 152 251 291 281 240 214 169 191 185 165 169 180 179 169 165 148 171 167 132 125 119 122 124 133 144 148 145 146 150 154 149 149 156 156 154 153 153 153 140 132 133 120
195 214 139 212 224 206 271 269 158 209 200 164 182 186 161 156 155 158 159 140 130 127 134 130 134 142 148 147 142 145 156 158 152 146 150 162 147 152 155 160 155 154 162 167